TimeEST,TemperatureF,Dew PointF,Humidity,Sea Level PressureIn,VisibilityMPH,Wind Direction,Wind SpeedMPH,Gust SpeedMPH,PrecipitationIn,Events,Conditions,WindDirDegrees,DateUTC
12:15 AM,59.0,59.0,100,30.13,7.0,Calm,Calm,-,N/A,,Clear,0,2013-01-13 05:15:00
12:35 AM,59.0,59.0,100,30.12,7.0,Calm,Calm,-,N/A,,Clear,0,2013-01-13 05:35:00
12:55 AM,59.0,59.0,100,30.13,7.0,Calm,Calm,-,N/A,,Clear,0,2013-01-13 05:55:00
1:15 AM,59.0,59.0,100,30.13,5.0,Calm,Calm,-,N/A,,Clear,0,2013-01-13 06:15:00
1:35 AM,57.2,57.2,100,30.14,7.0,Calm,Calm,-,N/A,,Clear,0,2013-01-13 06:35:00
1:55 AM,57.2,55.4,94,30.13,5.0,Calm,Calm,-,N/A,,Clear,0,2013-01-13 06:55:00
2:15 AM,57.2,53.6,88,30.13,7.0,Calm,Calm,-,N/A,,Clear,0,2013-01-13 07:15:00
2:35 AM,57.2,55.4,94,30.13,7.0,Calm,Calm,-,N/A,,Clear,0,2013-01-13 07:35:00
2:55 AM,57.2,55.4,94,30.13,7.0,Calm,Calm,-,N/A,,Clear,0,2013-01-13 07:55:00
3:15 AM,57.2,55.4,94,30.13,5.0,Calm,Calm,-,N/A,,Clear,0,2013-01-13 08:15:00
3:35 AM,55.4,55.4,100,30.12,7.0,Calm,Calm,-,N/A,,Clear,0,2013-01-13 08:35:00
3:55 AM,55.4,51.8,88,30.12,7.0,Calm,Calm,-,N/A,,Clear,0,2013-01-13 08:55:00
4:15 AM,55.4,48.2,77,30.11,7.0,Calm,Calm,-,N/A,,Clear,0,2013-01-13 09:15:00
4:35 AM,55.4,55.4,100,30.11,7.0,Calm,Calm,-,N/A,,Clear,0,2013-01-13 09:35:00
4:55 AM,53.6,53.6,100,30.12,4.0,Calm,Calm,-,N/A,,Clear,0,2013-01-13 09:55:00
5:15 AM,53.6,46.4,77,30.12,7.0,Calm,Calm,-,N/A,,Clear,0,2013-01-13 10:15:00
5:35 AM,55.4,42.8,63,30.12,5.0,Calm,Calm,-,N/A,,Clear,0,2013-01-13 10:35:00
5:55 AM,55.4,42.8,63,30.12,5.0,Calm,Calm,-,N/A,,Clear,0,2013-01-13 10:55:00
6:15 AM,55.4,46.4,72,30.13,5.0,Calm,Calm,-,N/A,,Clear,0,2013-01-13 11:15:00
6:35 AM,53.6,46.4,77,30.13,4.0,Calm,Calm,-,N/A,,Clear,0,2013-01-13 11:35:00
7:15 AM,53.6,50.0,88,30.14,5.0,Calm,Calm,-,N/A,,Scattered Clouds,0,2013-01-13 12:15:00
7:35 AM,53.6,46.4,77,30.15,5.0,Calm,Calm,-,N/A,,Mostly Cloudy,0,2013-01-13 12:35:00
7:55 AM,53.6,35.6,51,30.16,4.0,Calm,Calm,-,N/A,,Mostly Cloudy,0,2013-01-13 12:55:00
8:15 AM,55.4,51.8,88,30.16,5.0,Calm,Calm,-,N/A,,Mostly Cloudy,0,2013-01-13 13:15:00
8:35 AM,57.2,53.6,88,30.17,5.0,Calm,Calm,-,N/A,,Mostly Cloudy,0,2013-01-13 13:35:00
8:55 AM,60.8,55.4,82,30.18,5.0,Calm,Calm,-,N/A,,Scattered Clouds,0,2013-01-13 13:55:00
9:15 AM,62.6,55.4,77,30.18,5.0,Calm,Calm,-,N/A,,Mostly Cloudy,0,2013-01-13 14:15:00
9:35 AM,64.4,59.0,83,30.18,7.0,Calm,Calm,-,N/A,,Mostly Cloudy,0,2013-01-13 14:35:00
9:55 AM,66.2,53.6,64,30.19,10.0,SW,4.6,-,N/A,,Scattered Clouds,230,2013-01-13 14:55:00
10:15 AM,68.0,50.0,52,30.18,10.0,SW,6.9,-,N/A,,Clear,230,2013-01-13 15:15:00
10:35 AM,69.8,59.0,68,30.18,10.0,SW,4.6,-,N/A,,Clear,230,2013-01-13 15:35:00
10:55 AM,71.6,53.6,53,30.17,10.0,SSW,8.1,-,N/A,,Clear,210,2013-01-13 15:55:00
11:15 AM,71.6,48.2,43,30.16,10.0,SW,6.9,-,N/A,,Clear,220,2013-01-13 16:15:00
11:55 AM,71.6,46.4,41,30.15,10.0,SSW,3.5,-,N/A,,Clear,200,2013-01-13 16:55:00
12:35 PM,75.2,14.0,10,30.13,10.0,SSW,4.6,-,N/A,,Clear,210,2013-01-13 17:35:00
12:55 PM,75.2,51.8,44,30.11,10.0,SSW,6.9,-,N/A,,Clear,200,2013-01-13 17:55:00
1:15 PM,75.2,50.0,41,30.10,10.0,SSW,5.8,-,N/A,,Clear,200,2013-01-13 18:15:00
1:35 PM,77.0,44.6,32,30.10,10.0,SSW,6.9,-,N/A,,Clear,200,2013-01-13 18:35:00
1:55 PM,73.4,26.6,18,30.09,10.0,South,3.5,-,N/A,,Clear,190,2013-01-13 18:55:00
2:15 PM,75.2,50.0,41,30.10,10.0,Calm,Calm,-,N/A,,Clear,0,2013-01-13 19:15:00
2:35 PM,75.2,48.2,38,30.10,10.0,SSE,3.5,-,N/A,,Clear,160,2013-01-13 19:35:00
2:55 PM,77.0,48.2,36,30.10,10.0,SSW,4.6,-,N/A,,Clear,200,2013-01-13 19:55:00
3:15 PM,77.0,50.0,39,30.10,10.0,South,3.5,-,N/A,,Clear,170,2013-01-13 20:15:00
3:35 PM,77.0,41.0,28,30.11,10.0,South,4.6,-,N/A,,Clear,170,2013-01-13 20:35:00
3:55 PM,77.0,50.0,39,30.10,10.0,South,3.5,-,N/A,,Clear,180,2013-01-13 20:55:00
4:15 PM,75.2,48.2,38,30.11,10.0,South,3.5,-,N/A,,Clear,170,2013-01-13 21:15:00
4:35 PM,73.4,46.4,38,30.12,10.0,Calm,Calm,-,N/A,,Clear,0,2013-01-13 21:35:00
4:55 PM,71.6,53.6,53,30.12,10.0,Calm,Calm,-,N/A,,Clear,0,2013-01-13 21:55:00
5:15 PM,71.6,51.8,50,30.11,10.0,Calm,Calm,-,N/A,,Clear,0,2013-01-13 22:15:00
5:35 PM,69.8,53.6,56,30.11,10.0,Calm,Calm,-,N/A,,Clear,0,2013-01-13 22:35:00
5:55 PM,68.0,51.8,56,30.11,10.0,SSE,3.5,-,N/A,,Clear,160,2013-01-13 22:55:00
6:15 PM,68.0,51.8,56,30.11,10.0,Calm,Calm,-,N/A,,Clear,0,2013-01-13 23:15:00
6:35 PM,66.2,55.4,68,30.12,10.0,Calm,Calm,-,N/A,,Clear,0,2013-01-13 23:35:00
6:55 PM,66.2,53.6,64,30.12,10.0,SSE,3.5,-,N/A,,Clear,160,2013-01-13 23:55:00
7:15 PM,66.2,55.4,68,30.11,10.0,SSE,3.5,-,N/A,,Clear,160,2013-01-14 00:15:00
7:35 PM,68.0,55.4,64,30.12,10.0,Calm,Calm,-,N/A,,Clear,0,2013-01-14 00:35:00
7:55 PM,64.4,53.6,68,30.12,10.0,Calm,Calm,-,N/A,,Clear,0,2013-01-14 00:55:00
8:15 PM,64.4,57.2,77,30.12,10.0,Calm,Calm,-,N/A,,Clear,0,2013-01-14 01:15:00
8:35 PM,62.6,59.0,88,30.12,10.0,Calm,Calm,-,N/A,,Clear,0,2013-01-14 01:35:00
8:55 PM,62.6,60.8,94,30.12,10.0,Calm,Calm,-,N/A,,Clear,0,2013-01-14 01:55:00
9:15 PM,62.6,60.8,94,30.13,10.0,Calm,Calm,-,N/A,,Clear,0,2013-01-14 02:15:00
9:35 PM,62.6,60.8,94,30.13,10.0,Calm,Calm,-,N/A,,Clear,0,2013-01-14 02:35:00
9:55 PM,62.6,57.2,82,30.13,10.0,Calm,Calm,-,N/A,,Clear,0,2013-01-14 02:55:00
10:15 PM,62.6,60.8,94,30.14,10.0,Calm,Calm,-,N/A,,Clear,0,2013-01-14 03:15:00
10:35 PM,60.8,60.8,100,30.14,10.0,SSE,3.5,-,N/A,,Clear,160,2013-01-14 03:35:00
10:55 PM,62.6,60.8,94,30.15,10.0,Calm,Calm,-,N/A,,Clear,0,2013-01-14 03:55:00
11:15 PM,60.8,59.0,94,30.14,10.0,South,3.5,-,N/A,,Clear,180,2013-01-14 04:15:00
11:35 PM,62.6,62.6,100,30.14,10.0,Calm,Calm,-,N/A,,Clear,0,2013-01-14 04:35:00
11:55 PM,62.6,62.6,100,30.15,10.0,Calm,Calm,-,N/A,,Clear,0,2013-01-14 04:55:00